www.pogodaiklimat.ru

Погода и климат >> Архив погоды >> Украина >> Одесса


АРХИВ ПОГОДЫ в Одессе

Время (UTC), дата Ветер
(напр.,м/с)
 
Видим.   Явления Облачность Т
(С)
Тd
(С)
f
(%)
Тe
(С)
Тes
(С)
Комфортность P
(гПа)
Po
(гПа)
Тmin
(С)
Tmax
(С)
R
(мм)
R24
(мм)
S
(см)
15 13.08 Ю 1 40 км ясно +27.2 +18.5 59 +32 +35 очень
душно
1015.0 1010.2
18 13.08 З 3 45 км ясно +25.9 +11.7 41 +27 +27 жарко 1014.9 1010.1 +28.3
21 13.08 З 1 40 км ясно +23.1 +15.4 62 +27 +27 душно 1014.8 1009.9
00 14.08 З 2 40 км ясно +21.5 +13.2 59 +24 +24 комфорт 1014.7 1009.8
03 14.08 штиль 0 40 км ясно +19.3 +11.8 62 +20 +20 по сезону 1015.1 1010.1
06 14.08 З 1 29 км ясно +26.6 +12.3 41 +28 +35 жарко 1015.7 1010.9 +18.7
09 14.08 Ю 3 21 км ясно +27.4 +14.4 45 +30 +42 жарко 1015.8 1011.0
12 14.08 Ю 3 21 км ясно +27.7 +17.6 54 +32 +42 очень
душно
1015.3 1010.5
15 14.08 Ю 2 50 км ясно +27.2 +14.6 46 +30 +32 душно 1014.6 1009.8
18 14.08 ЮЗ 1 45 км ясно +24.7 +16.2 59 +28 +28 душно 1014.8 1009.9 +29.5
21 14.08 З 2 35 км ясно +22.6 +15.2 63 +26 +26 жарко 1014.7 1009.8
00 15.08 штиль 0 40 км ясно +20.2 +14.8 71 +22 +22 комфорт 1014.9 1010.0
03 15.08 штиль 0 45 км ясно +20.3 +12.5 61 +22 +22 комфорт 1014.8 1009.9
06 15.08 штиль 0 25 км ясно +25.1 +15.7 56 +28 +36 жарко 1015.2 1010.4 +19.6
09 15.08 В 1 30 км ясно +26.8 +17.8 58 +31 +48 душно 1015.4 1010.6
12 15.08 ЮВ 1 24 км 4/1 600 м
[Cu hum Ci fib]
+28.7 +15.6 45 +32 +44 душно 1014.9 1010.1
15 15.08 штиль 0 50 км 3/0
[Ci fib]
+28.7 +10.4 32 +29 +32 жарко 1014.1 1009.3
18 15.08 З 1 18 км 6/0
[Ci fib]
+24.3 +12.9 49 +26 +26 жарко 1014.2 1009.3 +30.7
21 15.08 СЗ 1 17 км 4/0
[Ci fib]
+24.6 +10.8 42 +26 +26 жарко 1014.2 1009.3
00 16.08 СЗ 2 40 км ясно +24.1 +10.8 43 +25 +25 комфорт 1013.8 1008.9
03 16.08 СЗ 1 45 км 4/0
[Ci sp]
+23.8 +9.4 40 +25 +25 комфорт 1013.6 1008.7
06 16.08 СЗ 1 30 км 8/0
[Ac trans Ci fib]
+27.8 +10.1 33 +28 +32 жарко 1013.8 1009.0 +23.1
09 16.08 СВ 2 30 км 3/1 600 м
[Cu hum Cc]
+28.5 +8.3 28 +32 +44 душно 1014.3 1009.5
12 16.08 В 1 28 км 3/1 600 м
[Cu hum Ci fib]
+33.4 +6.6 19 +31 +44 жарко 1013.3 1008.6
15 16.08 штиль 0 45 км 3/1 600 м
[Cu hum Ci fib]
+33.3 +7.3 20 +32 +34 жарко 1012.7 1008.0
18 16.08 З 1 29 км 4/0
[Ac trans Ci fib]
+26.9 +11.8 39 +28 +28 жарко 1012.7 1007.9 +34.5
21 16.08 З 1 25 км 4/0
[Ac trans]
+25.5 +10.5 39 +26 +26 жарко 1012.6 1007.8
00 17.08 СЗ 3 35 км ясно +25.9 +10.9 39 +27 +27 жарко 1012.5 1007.7
03 17.08 СЗ 1 25 км 3/0
[Ci fib]
+22.7 +13.2 55 +26 +26 жарко 1013.1 1008.2
06 17.08 С 1 26 км 3/0
[Ci fib]
+27.5 +16.5 51 +31 +37 душно 1013.8 1009.0 +22.4
09 17.08 СВ 1 19 км ясно +30.0 +14.9 40 +32 +49 жарко 1014.0 1009.2
12 17.08 ЮВ 2 27 км 6/3 600 м
[Cu hum Ac cuf Ci fib]
+32.6 +11.7 28 +33 +39 жарко 1013.4 1008.7
15 17.08 штиль 0 40 км 4/1 600 м
[Cu hum Ci fib]
+32.7 +8.2 22 +31 +34 жарко 1012.5 1007.8
18 17.08 ЮЗ 2 40 км 8/0
[Ac trans]
+28.8 +9.0 29 +29 +29 жарко 1013.4 1008.6 +34.0
21 17.08 З 2 25 км 6/0
[Ac cast]
+25.5 +12.0 43 +27 +27 жарко 1013.6 1008.8
00 18.08 З 1 29 км ясно +23.1 +11.2 47 +25 +25 комфорт 1013.6 1008.7
03 18.08 штиль 0 35 км ясно +23.9 +11.6 46 +25 +25 комфорт 1014.0 1009.1
06 18.08 СЗ 2 19 км 6/0
[Ac trans Ci fib]
+27.0 +13.4 43 +29 +33 жарко 1014.8 1010.0 +22.7
09 18.08 В 1 14 км 6/0
[Ac trans Cc]
+29.8 +16.2 44 +33 +46 душно 1015.3 1010.5
12 18.08 Ю 2 35 км 4/3 600 м
[Cu med, cong Ac trans]
+31.5 +14.2 35 +33 +41 жарко 1014.7 1010.0
15 18.08 штиль 0 23 км гроза без осадков 9/6 600 м
[Cb calv Ac und]
+29.6 +12.1 34 +36 +36 очень
душно
1015.0 1010.2
18 18.08 СЗ 2 50 км в посл. час гроза {ливн. осадки} 10/8 600 м
[Cb calv Ac und]
+26.5 +11.4 39 +28 +28 жарко 1015.6 1010.8 +32.3 0.0
21 18.08 СЗ 2 35 км зарница 10/6 600 м
[Cb calv Ac und Ci ing]
+25.2 +13.4 48 +27 +27 жарко 1017.1 1012.2
00 19.08 штиль 0 35 км 6/3 600 м
[Sc Ac und]
+23.2 +15.8 63 +28 +28 душно 1017.2 1012.3
03 19.08 СЗ 1 35 км 4/0
[Ac trans]
+22.3 +15.2 64 +26 +26 жарко 1017.1 1012.2
06 19.08 В 3 35 км 6/0
[Cc]
+24.4 +16.1 60 +28 +32 душно 1018.0 1013.1 +21.9
09 19.08 СВ 3 35 км 3/0
[Ci fib]
+25.5 +17.7 62 +30 +41 душно 1018.3 1013.4
12 19.08 ЮВ 2 45 км 1/1 600 м
[Cu hum]
+28.4 +11.0 34 +29 +40 жарко 1017.4 1012.6
15 19.08 Ю 2 45 км 3/0
[Ci]
+27.3 +14.0 44 +29 +31 жарко 1016.4 1011.6
18 19.08 штиль 0 27 км 4/0
[Ci]
+24.6 +10.5 41 +26 +26 жарко 1017.0 1012.1 +29.2
21 19.08 штиль 0 25 км 3/0
[Ci fib]
+23.9 +12.2 48 +26 +26 жарко 1017.2 1012.3
00 20.08 штиль 0 45 км ясно +22.3 +17.7 75 +27 +27 душно 1016.9 1012.0
03 20.08 штиль 0 50 км ясно +24.4 +15.1 56 +27 +27 жарко 1017.0 1012.1
06 20.08 ЮВ 4 21 км 3/0
[Ci fib]
+26.3 +12.7 43 +28 +31 жарко 1017.6 1012.8 +21.6
09 20.08 В 4 26 км 4/0
[Ci fib]
+26.8 +13.5 44 +29 +38 жарко 1017.8 1013.0

 

Местоположение метеостанции Одесса (Одесская область, Украина): широта 46.43 долгота 30.77 высота над уровнем моря 42 м.

В архиве по умолчанию представлена погода в Одессе за последнюю неделю. Архивные данные за месяц целиком и за предыдущие месяцы, начиная с января 2011 года, Вы можете получить, выбрав интересующий диапазон дат из раскрывающегося списка и нажав кнопку "Ввод!".


*Определитесь, кто Вы:
робот инопланетянин человек

Внимание! Время в таблицах - всемирное. Для получения местного времени необходимо прибавить поправку, которая в Одессе равна 2 ч.

Смотрите также архив погоды в соседних городах и на ближайших метеорологических станциях:

Погода в Ильичёвске (Одесская область, Украина) (6 км)
Погода в Белгород-Днестровском (Одесская область, Украина) (41 км)
Погода в Очакове (Николаевская область, Украина) (64 км)
Погода в Сербке (Одесская область, Украина) (66 км)
Погода в Раздельной (Одесская область, Украина) (70 км)
Погода в Заставе (Одесская область, Украина) (72 км)
Погода в Сарате (Одесская область, Украина) (96 км)
Погода в Штефан Водэ (Молдова) (99 км)
Погода в Тирасполе (Молдова) (103 км)
Погода в Николаеве (Николаевская область, Украина) (112 км)

Пояснения к столбцам:

Ветер - указаны скорость ветра в м/с - средняя за 10 мин, порывы в срок и между сроками (в фигурных скобках) и направление, откуда дует ветер: С - северный, СВ - северо-восточный, В - восточный, ЮВ - юго-восточный, Ю - южный, ЮЗ - юго-западный, З - западный, СЗ - северо-западный.
Видимость - горизонтальная дальность видимости в метрах или километрах. При видимости от 1 до 10 км при отсутствии осадков обычно наблюдается дымка, при ухудшении видимости до 1 км и менее - туман. В сухую погоду видимость может ухудшаться дымом, пылью или мглою.
Явления - указаны атмосферные явления, наблюдавшиеся в срок или в последний час перед сроком; фигурными скобками обозначены явления, наблюдавшиеся между сроками (за 1-3 часа до срока); квадратными скобками обозначены град или гололедные отложения с указанием их диаметра в мм.
Облачность - указаны через наклонную черту общая и нижняя облачность в баллах и высота нижней границы облаков в метрах; квадратными скобками обозначены формы облаков: Ci - перистые, Cs - перисто-слоистые, Cc - перисто-кучевые, Ac - высококучевые, As - высокослоистые, Sc - слоисто-кучевые, Ns - слоисто-дождевые, Cu - кучевые, Cb - кучево-дождевые. Подробнее классификацию облаков см. в Атласе облаков (PDF).
T - Температура воздуха - температура, измеренная на высоте 2 м над землей.
Td - Температура точки росы - температура, при понижении до которой содержащийся в воздухе водяной пар достигнет насыщения.
f - Относительная влажность воздуха - влажноcть воздуха, измеренная на высоте 2 м над землей.
Te - Эффективная температура - температура, которую ощущает одетый по сезону человек в тени. Характеристика душности погоды. При расчете учитывается влияние влажности воздуха и скорости ветра на теплоощущения человека.
Tes - Эффективная температура на солнце - температура, которую ощущает человек, с поправкой на солнечный нагрев. Характеристика знойности погоды. Зависит от высоты солнца над горизонтом, облачности и скорости ветра. Ночью, в пасмурную погоду, а также при ветре 12 м/с и более поправка равна нулю.
P - Атмосферное давление - приведенное к уровню моря атмосферное давление.
Po - Атмосферное давление - измеренное на уровне метеостанции атмосферное давление.
Tmin - Минимальная температура - минимум температуры воздуха на высоте 2 м над землей.
Tmax - Максимальная температура - максимум температуры воздуха на высоте 2 м над землей.
R - Количество осадков - Количество выпавших осадков за период времени, мм. При наведении курсора мыши на число - период времени, за который выпало указанное количество осадков.
R24 - Количество осадков - Количество выпавших осадков за 24 часа, мм.
S - Снежный покров - Высота снежного покрова, см. При наведении курсора мыши на число - состояние снежного покрова и степень покрытия местности в баллах.